Location: Unspecified
(0.0000°N, 0.0000°E)
Time: 08:27:07
(UTC+00:00)

deb Midas III - Pass Details

Date: 20 March 2026
Orbit: 3314 x 3545 km, 91.1° (Epoch: 18 April)

Event Time Altitude Azimuth Distance (km) Brightness Sun altitude
Rises 01:12:29 0° 172° (S) 7,608 ? -73.8°
Reaches altitude 10° 01:16:46 10° 170° (S) 6,570 ? -72.7°
Enters shadow 01:20:29 20° 169° (SSE) 5,693 ? -71.8°
Exits shadow 01:50:21 17° 357° (N) 5,766 ? -64.3°
Drops below altitude 10° 01:52:58 10° 357° (N) 6,393 ? -63.7°
Sets 01:57:02 0° 357° (N) 7,398 ? -62.6°
